FW4609 Weather Reports


time (UTC)temp
C
wind
direction
speed
KPH
gust
KPH
rain 1hr
cm
rain 24hr
cm
rain mn
cm
humidity
%
barometer
mb
20260503224605 13 203 3.2 8.0 0.00 0.00 0.00 62 1009.7
20260503223039 13 181 3.2 9.7 0.00 0.00 0.00 64 1009.7
20260503221621 13 203 3.2 8.0 0.00 0.00 0.00 65 1009.8
20260503220048 13 188 3.2 8.0 0.00 0.00 0.00 63 1010.1
20260503214611 13 277 1.6 12.9 0.00 0.00 0.00 63 1010.1
20260503213020 13 199 4.8 9.7 0.00 0.00 0.00 66 1010.1
20260503211622 13 236 3.2 9.7 0.00 0.00 0.00 65 1009.9
20260503210038 13 201 4.8 19.3 0.00 0.00 0.00 65 1009.7
20260503204504 15 174 4.8 16.1 0.00 0.00 0.00 64 1009.6
20260503203106 14 198 6.4 16.1 0.00 0.00 0.00 63 1009.6
20260503201502 13 177 4.8 16.1 0.00 0.00 0.00 67 1009.8
20260503200101 12 199 4.8 9.7 0.00 0.00 0.00 70 1010.2
20260503194521 11 148 6.4 11.3 0.00 0.00 0.00 70 1010.2
20260503193103 12 238 4.8 16.1 0.00 0.00 0.00 69 1010.5
20260503191526 12 205 8.0 12.9 0.00 0.00 0.00 67 1010.6
20260503190110 13 214 4.8 12.9 0.00 0.00 0.00 67 1010.8
20260503184549 13 195 4.8 17.7 0.00 0.00 0.00 67 1011.0
20260503183011 13 251 6.4 14.5 0.00 0.00 0.00 67 1011.3
20260503181603 13 172 4.8 17.7 0.00 0.00 0.00 66 1011.4
20260503180026 12 233 8.0 16.1 0.00 0.00 0.00 67 1011.7
20260503174614 11 197 6.4 12.9 0.00 0.00 0.00 66 1011.9
20260503173050 13 186 6.4 17.7 0.00 0.00 0.00 64 1012.0
20260503171626 12 172 9.7 14.5 0.00 0.00 0.00 64 1012.1
20260503160125 11 205 6.4 12.9 0.00 0.00 0.00 70 1013.2
20260503150118 11 213 1.6 11.3 0.00 0.00 0.00 52 1013.9
20260503140118 8 207 1.6 8.0 0.00 0.00 0.00 61 1014.6
20260503130137 7 233 0.0 4.8 0.00 0.00 0.00 70 1014.6
20260503100125 0 302 0.0 1.6 0.00 0.00 0.00 83 1014.2
20260503081527 0 302 0.0 1.6 0.00 0.00 0.00 81 1014.9
20260503080113 0 302 0.0 1.6 0.00 0.00 0.00 81 1015.0
20260503071556 0 302 0.0 1.6 0.00 0.00 0.00 80 1015.1
20260503070135 0 143 0.0 1.6 0.00 0.00 0.00 79 1015.1
20260503053021 0 282 0.0 1.6 0.00 0.00 0.00 80 1015.6
20260503051614 0 283 0.0 1.6 0.00 0.00 0.00 80 1015.7
20260503050033 0 282 0.0 0.0 0.00 0.00 0.00 81 1015.6
20260503044629 0 282 0.0 0.0 0.00 0.00 0.00 81 1015.7
20260503043035 0 282 0.0 0.0 0.00 0.00 0.00 81 1015.8
20260503041503 0 282 0.0 0.0 0.00 0.00 0.00 82 1015.8
20260503040049 0 282 0.0 1.6 0.00 0.00 0.00 82 1015.9
20260503034510 0 282 0.0 1.6 0.00 0.00 0.00 82 1016.0
20260503033110 1 282 0.0 1.6 0.00 0.00 0.00 81 1016.2
20260503031519 1 282 0.0 0.0 0.00 0.00 0.00 80 1016.1
20260503030121 2 282 0.0 1.6 0.00 0.00 0.00 79 1016.0
20260503024535 2 282 0.0 1.6 0.00 0.00 0.00 78 1016.1
20260503023017 2 282 0.0 0.0 0.00 0.00 0.00 77 1016.1
20260503021608 2 282 0.0 0.0 0.00 0.00 0.00 78 1016.2
20260503020019 3 282 0.0 1.6 0.00 0.00 0.00 77 1016.3
20260503014609 3 282 0.0 0.0 0.00 0.00 0.00 76 1016.2
20260503013027 3 282 0.0 0.0 0.00 0.00 0.00 74 1016.2
20260503011624 4 282 0.0 1.6 0.00 0.00 0.00 73 1016.2
20260503004509 5 282 0.0 1.6 0.00 0.00 0.00 70 1016.0
20260503003124 5 283 0.0 1.6 0.00 0.00 0.00 70 1016.0
20260503001547 5 283 0.0 1.6 0.00 0.00 0.00 69 1016.0
20260503000015 5 283 1.6 4.8 0.00 0.00 0.00 68 1016.0
20260502234615 5 297 1.6 4.8 0.00 0.00 0.00 68 1015.9
20260502233027 5 275 0.0 4.8 0.00 0.00 0.00 68 1015.9
20260502231621 5 286 1.6 4.8 0.00 0.00 0.00 68 1015.9
20260502230035 6 309 1.6 8.0 0.00 0.00 0.00 68 1015.8